Location: Rio Negrinho
(26.2394°S, 49.4999°W)
Time: 07:58:28
(UTC+00:00)

H-2A R/B - Pass Details

Date: 03 October 2020
Orbit: 500 x 542 km, 97.3° (Epoch: 17 June)

Event Time Altitude Azimuth Distance (km) Brightness Sun altitude
Rises 08:14:34 0° 18° (NNE) 2,617 6.4 -9.8°
Reaches altitude 10° 08:16:38 10° 20° (NNE) 1,746 5.5 -9.3°
Maximum altitude 08:20:22 66° 102° (ESE) 578 3.2 -8.5°
Drops below altitude 10° 08:24:13 10° 185° (S) 1,795 5.5 -7.7°
Sets 08:26:22 0° 187° (S) 2,699 6.4 -7.2°
